Location: St. Louis
(38.6270°N, 90.1994°W)
Time: 01:37:44
(UTC-06:00)

Vanguard 2 - Pass Details

Date: 03 December 2021
Orbit: 553 x 2936 km, 32.9° (Epoch: 16 January)

Event Time Altitude Azimuth Distance (km) Brightness Sun altitude
Rises 11:40:10 0° 205° (SSW) 2,712 11.3 29.1°
Reaches altitude 10° 11:43:21 10° 175° (S) 1,911 11.3 29.1°
Maximum altitude 11:45:21 13° 146° (SSE) 1,820 10.6 29.2°
Drops below altitude 10° 11:47:35 10° 118° (ESE) 2,171 10.3 29.2°
Sets 11:51:44 0° 92° (E) 3,471 10.9 29.2°
